Coffs Harbour Airport Observation History
Time Wind Speed Temp Pressure Rel. Hum Rain
04/08:00am SW 14-18 kts 13.8°c 1029.2 hPa 62% 0.0mm
04/07:30am SW 13-17 kts 13.7°c 1028.7 hPa 62% 0.0mm
04/07:00am SW 13-16 kts 13.3°c 1028.4 hPa 61% 0.0mm
04/06:30am SW 13-18 kts 12.9°c 1028.0 hPa 62% 0.0mm
04/06:00am SW 14-19 kts 13.0°c 1027.7 hPa 62% 0.0mm
04/05:30am SW 14-18 kts 13.2°c 1027.3 hPa 60% 0.0mm
04/05:00am SW 14-18 kts 13.4°c 1026.9 hPa 59% 0.0mm
04/04:30am SW 14-18 kts 13.5°c 1026.5 hPa 59% 0.0mm
04/04:00am SW 13-17 kts 13.3°c 1026.6 hPa 59% 0.0mm
04/03:30am SW 13-18 kts 13.7°c 1026.4 hPa 57% 0.0mm
04/03:00am SW 15-18 kts 13.6°c 1026.6 hPa 58% 0.0mm
04/02:30am SW 14-18 kts 13.7°c 1026.5 hPa 58% 0.0mm
04/02:00am WSW 12-16 kts 13.4°c 1026.7 hPa 58% 0.0mm
04/01:30am WSW 11-15 kts 13.4°c 1026.8 hPa 58% 0.0mm
04/01:00am SW 11-16 kts 13.5°c 1026.7 hPa 58% 0.0mm
04/12:30am SW 10-14 kts 13.3°c 1026.8 hPa 59% 0.0mm
04/12:00am SW 10-14 kts 13.5°c 1027.1 hPa 58% 0.0mm
Time Wind Speed Temp Pressure Rel. Hum Rain
03/11:30pm SW 9-11 kts 13.1°c 1027.1 hPa 59% 0.0mm
03/11:00pm WSW 8-12 kts 13.0°c 1027.0 hPa 59% 0.0mm
03/10:30pm WSW 7-9 kts 12.7°c 1027.0 hPa 61% 0.0mm
03/10:00pm WSW 7-10 kts 12.8°c 1026.8 hPa 61% 0.0mm
03/09:30pm SW 7-8 kts 13.1°c 1026.8 hPa 60% 0.0mm
03/09:00pm WSW 7-9 kts 13.7°c 1026.7 hPa 58% 0.0mm
03/08:30pm WSW 8-11 kts 14.5°c 1026.5 hPa 55% 0.0mm
03/08:00pm WSW 8-12 kts 14.5°c 1026.0 hPa 55% 0.0mm
03/07:30pm WSW 8-10 kts 14.5°c 1025.6 hPa 56% 0.0mm
03/07:00pm W 7-9 kts 14.5°c 1025.2 hPa 57% 0.0mm
03/06:30pm SW 5-9 kts 14.6°c 1024.6 hPa 58% 0.0mm
03/06:00pm WSW 6-8 kts 14.9°c 1023.9 hPa 58% 0.0mm
03/05:30pm SSW 18-22 kts 17.4°c 1023.3 hPa 47% 0.0mm
03/05:00pm SSW 16-22 kts 17.6°c 1022.7 hPa 51% 0.0mm
03/04:30pm S 17-22 kts 18.3°c 1022.2 hPa 52% 0.0mm
03/04:00pm S 12-18 kts 18.7°c 1021.9 hPa 48% 0.0mm
03/03:30pm S 12-15 kts 19.0°c 1021.4 hPa 45% 0.0mm
03/03:00pm S 14-17 kts 19.4°c 1021.1 hPa 45% 0.0mm
03/02:30pm S 15-18 kts 19.5°c 1020.9 hPa 43% 0.0mm
03/02:00pm S 14-18 kts 19.2°c 1021.0 hPa 45% 0.0mm
03/01:30pm S 13-17 kts 19.0°c 1021.0 hPa 41% 0.0mm
03/01:00pm S 11-15 kts 19.7°c 1020.7 hPa 43% 0.0mm
03/12:30pm SSE 7-9 kts 19.2°c 1020.6 hPa 47% 0.0mm
03/12:00pm SE 7-8 kts 18.9°c 1021.0 hPa 44% 0.0mm
03/11:30am SE 7-8 kts 19.1°c 1021.0 hPa 43% 0.0mm
03/11:00am SSW 7-11 kts 19.0°c 1021.2 hPa 38% 0.0mm
03/10:30am WNW 4-7 kts 18.1°c 1021.2 hPa 46% 0.0mm
03/10:00am WNW 2-5 kts 16.6°c 1021.4 hPa 51% 0.0mm
03/09:30am WNW 3-5 kts 15.4°c 1021.6 hPa 55% 0.0mm
03/09:00am NW 3-5 kts 13.3°c 1021.3 hPa 60% 0.0mm
03/08:30am NW 3-5 kts 10.9°c 1021.2 hPa 71% 0.0mm
03/08:00am NNW 5-7 kts 8.4°c 1021.1 hPa 92% 0.0mm
03/07:30am CALM 0-4 kts 6.1°c 1020.8 hPa 95% 0.0mm
03/07:00am CALM 0 kts 3.8°c 1020.3 hPa 95% 0.0mm
03/06:30am WNW 1-4 kts 3.2°c 1019.9 hPa 95% 0.0mm
03/06:00am NW 2-5 kts 3.5°c 1019.6 hPa 95% 0.0mm
03/05:30am NNW 4 kts 3.6°c 1019.2 hPa 95% 0.0mm
03/05:00am NW 1-5 kts 3.2°c 1018.7 hPa 95% 0.0mm
03/04:30am CALM 0 kts 3.2°c 1018.6 hPa 94% 0.0mm
03/04:00am NNW 4-5 kts 3.7°c 1018.5 hPa 94% 0.0mm
03/03:30am NNW 1-6 kts 4.1°c 1018.6 hPa 94% 0.0mm
03/03:00am CALM 0 kts 3.8°c 1018.5 hPa 94% 0.0mm
03/02:30am CALM 0 kts 4.6°c 1018.5 hPa 93% 0.0mm
03/02:00am CALM 0 kts 4.5°c 1018.5 hPa 92% 0.0mm
03/01:30am NNW 4-5 kts 5.7°c 1018.4 hPa 93% 0.0mm
03/01:00am WNW 5-7 kts 4.2°c 1018.2 hPa 91% 0.0mm
03/12:30am NW 2-5 kts 4.7°c 1018.4 hPa 90% 0.0mm
03/12:00am NNW 4-5 kts 5.6°c 1018.8 hPa 90% 0.0mm
Time Wind Speed Temp Pressure Rel. Hum Rain
02/11:30pm WNW 2-5 kts 6.3°c 1018.8 hPa 89% 0.0mm
02/11:00pm NW 5-6 kts 6.5°c 1018.8 hPa 86% 0.0mm
02/10:30pm CALM 0 kts 6.5°c 1018.6 hPa 86% 0.0mm
02/10:00pm N 3-5 kts 7.1°c 1018.4 hPa 79% 0.0mm
02/09:30pm NW 6-8 kts 7.9°c 1018.3 hPa 81% 0.0mm
02/09:00pm W 5-6 kts 8.0°c 1018.0 hPa 77% 0.0mm
02/08:30pm CALM 0-4 kts 8.3°c 1018.0 hPa 77% 0.0mm
02/08:00pm W 5-6 kts 8.7°c 1017.6 hPa 70% 0.0mm
02/07:30pm W 5-7 kts 9.2°c 1017.2 hPa 67% 0.0mm
02/07:00pm CALM 0 kts 9.7°c 1016.6 hPa 64% 0.0mm
02/06:30pm W 7-11 kts 10.7°c 1016.4 hPa 65% 0.0mm
02/06:00pm W 5-7 kts 9.9°c 1016.0 hPa 71% 0.0mm
02/05:30pm W 5-6 kts 11.5°c 1015.8 hPa 62% 0.0mm
02/05:00pm SW 6-7 kts 13.6°c 1015.3 hPa 50% 0.0mm
02/04:30pm SW 9-13 kts 15.1°c 1014.8 hPa 44% 0.0mm
02/04:00pm SW 8-10 kts 16.3°c 1014.4 hPa 40% 0.0mm
02/03:30pm WSW 7-9 kts 17.2°c 1014.2 hPa 39% 0.0mm
02/03:00pm WSW 7-10 kts 17.4°c 1014.2 hPa 40% 0.0mm
02/02:30pm WSW 11-17 kts 17.3°c 1014.2 hPa 37% 0.0mm
02/02:00pm WSW 11-19 kts 17.4°c 1014.4 hPa 36% 0.0mm
02/01:30pm W 11-16 kts 17.2°c 1014.3 hPa 36% 0.0mm
02/01:00pm WSW 15-21 kts 16.7°c 1014.5 hPa 36% 0.0mm
02/12:30pm SW 12-17 kts 16.7°c 1014.8 hPa 38% 0.0mm
02/12:00pm WSW 13-20 kts 16.0°c 1015.1 hPa 36% 0.0mm
02/11:49am WSW 15-25 kts 16.4°c 1015.4 hPa 39% 0.0mm
02/11:30am WSW 15-23 kts 16.5°c 1015.7 hPa 42% 0.0mm
02/11:00am WSW 14-20 kts 16.0°c 1015.9 hPa 42% 0.0mm
02/10:30am W 7-11 kts 15.4°c 1016.3 hPa 43% 0.0mm
02/10:00am WSW 8-15 kts 14.6°c 1016.8 hPa 42% 0.0mm
02/09:30am E 3-6 kts 14.1°c 1016.9 hPa 40% 0.0mm
02/09:00am CALM 0 kts 14.2°c 1016.8 hPa 48% 0.0mm
02/08:30am W 1-4 kts 13.2°c 1016.7 hPa 49% 0.0mm
02/08:00am W 3-4 kts 11.3°c 1016.6 hPa 66% 0.0mm
02/07:30am CALM 0-4 kts 9.2°c 1016.5 hPa 77% 0.0mm
02/07:00am CALM 0 kts 7.6°c 1016.3 hPa 73% 0.0mm
02/06:30am WSW 5-8 kts 9.9°c 1015.9 hPa 58% 0.0mm
02/06:00am WSW 8-10 kts 10.8°c 1015.5 hPa 56% 0.0mm
02/05:30am WSW 9-12 kts 11.8°c 1015.3 hPa 52% 0.0mm
02/05:00am W 5-8 kts 11.7°c 1014.7 hPa 58% 0.0mm
02/04:30am WSW 7-9 kts 11.8°c 1014.4 hPa 60% 0.0mm
02/04:00am SW 7-9 kts 11.8°c 1014.1 hPa 65% 0.0mm
02/03:30am WSW 6-9 kts 12.6°c 1013.8 hPa 61% 0.0mm
02/03:00am WSW 7-12 kts 12.9°c 1013.6 hPa 63% 0.0mm
02/02:30am W 4-8 kts 9.6°c 1013.2 hPa 80% 0.0mm
02/02:00am W 2-5 kts 9.6°c 1013.0 hPa 82% 0.0mm
02/01:30am W 1-5 kts 11.3°c 1012.9 hPa 74% 0.0mm
02/01:00am NW 6-8 kts 12.4°c 1012.8 hPa 68% 0.0mm
02/12:30am N 7-10 kts 13.5°c 1012.4 hPa 74% 0.0mm
02/12:00am WNW 4-7 kts 11.3°c 1012.3 hPa 89% 0.0mm